User: anonymous   Login
Location: Bittkow
(50.3000°N, 19.0000°E)
Time: 16:16:47
(UTC+00:00)
Language:

Intercosmos 25 - Orbit

View from above orbital plane
View from above orbital plane
View from above satellite
View from above satellite

Ground track
Ground track

The orbit data is extracted from the following two-line orbital elements,

1 21819U 91086A   21173.74849997 -.00000173  00000-0 -38256-4 0  9997
2 21819  82.5854 264.3815 1515079 202.8331 149.7868 12.05258158288896
Epoch (UTC): 22 June 2021 17:57:50
Eccentricity: 0.1515079
inclination: 82.5854°
perigee height: 440 km
apogee height: 2875 km
right ascension of ascending node: 264.3815°
argument of perigee: 202.8331°
revolutions per day: 12.05258158
mean anomaly at epoch: 149.7868°
orbit number at epoch: 28889

The dashed part of the orbit path shows where the satellite is in the earth's shadow,  

DLR